Home   Weather   Kokkola   Past weeks

Flag for Finland Past Weather in Kokkola, Finland — Yesterday and Last 2 Weeks

34 °F

Passing clouds.

Feels Like: 34 °F
Forecast: 33 / 38 °F
Wind: 1 mph from South

Location: Kruunupyy

Current Time: Oct 21, 2016 at 12:32:12 AM

Latest Report: Oct 20, 2016 at 11:50 PM

Visibility: N/A

Pressure: 30.57 "Hg

Humidity: 93%

Dew Point: 32 °F

Location of KokkolaLocation

Past Weather in Kokkola — Graph


Kokkola Temperature Yesterday

Maximum temperature yesterday: 43 °F (at 1:20 PM)
Minimum temperature yesterday: 34 °F (at 9:20 PM)
Average temperature yesterday: 39 °F

High & Low Weather Summary for the Past Weeks

High50 °F (Oct 6, 3:50 PM)100% (Oct 6, 7:20 PM)30.77 "Hg (Oct 6, 7:20 PM)
Low21 °F (Oct 11, 3:50 AM)58% (Oct 7, 1:50 PM)30.30 "Hg (Oct 18, 3:50 PM)
Average38 °F87%30.56 "Hg
* Reported Oct 5 11:20 PM — Oct 20 11:20 PM, Kokkola, Weather by CustomWeather, © 2016

Note: Actual official high and low records may vary slightly from our data, if they occured in-between our weather recording intervals... More about our weather records


Kokkola Weather History for the Previous 24 Hours

Scroll right to see more
Time TempWeatherWind HumidityBarometerVisibility
11:20 PM
Thu, Oct 20
36 °FPartly cloudy.3 mph87%30.57 "HgN/A
10:50 PM34 °FMostly cloudy.2 mph93%30.57 "HgN/A
10:20 PM34 °FOvercast.No wind93%30.57 "HgN/A
9:50 PM34 °FOvercast.No wind93%30.54 "HgN/A
9:20 PM34 °FPassing clouds.No wind93%30.54 "HgN/A
8:50 PM36 °FOvercast.No wind87%30.54 "HgN/A
8:20 PM37 °FOvercast.No wind81%30.54 "HgN/A
7:50 PM36 °FPassing clouds.2 mph87%30.54 "HgN/A
7:20 PM36 °FPassing clouds.1 mph93%30.54 "HgN/A
6:50 PM37 °FPassing clouds.3 mph81%30.54 "HgN/A
6:20 PM37 °FPassing clouds.3 mph81%30.54 "HgN/A
5:50 PM39 °FOvercast.3 mph81%30.54 "HgN/A
5:20 PM41 °FOvercast.3 mph76%30.54 "HgN/A
4:50 PM41 °FPartly sunny.3 mph76%30.54 "HgN/A
4:20 PM43 °FSunny.5 mph66%30.54 "Hg10 mi
3:50 PM43 °FSunny.3 mph66%30.54 "Hg10 mi
3:20 PM43 °FPassing clouds.5 mph66%30.54 "HgN/A
2:50 PM43 °FSunny.3 mph71%30.54 "Hg10 mi
2:20 PM41 °FPartly sunny.6 mph76%30.54 "HgN/A
1:50 PM43 °FPartly sunny.6 mph71%30.54 "HgN/A
1:20 PM43 °FPartly sunny.6 mph71%30.54 "HgN/A
12:50 PM41 °FPartly sunny.6 mph76%30.51 "HgN/A
12:20 PM41 °FPartly sunny.6 mph76%30.51 "HgN/A
11:50 AM41 °FPartly sunny.5 mph81%30.51 "HgN/A
11:20 AM41 °FMore clouds than sun.5 mph81%30.51 "HgN/A
10:50 AM39 °FPartly sunny.3 mph87%30.51 "HgN/A
10:20 AM39 °FMostly cloudy.2 mph87%30.51 "HgN/A
9:50 AM37 °FPartly sunny.3 mph93%30.48 "HgN/A
9:20 AM37 °FPartly sunny.3 mph93%30.48 "HgN/A
8:50 AM37 °FPartly sunny.3 mph93%30.48 "HgN/A
8:20 AM37 °FMostly cloudy.2 mph93%30.48 "HgN/A
7:50 AM39 °FPartly cloudy.2 mph87%30.45 "HgN/A
7:20 AM39 °FMostly cloudy.1 mph87%30.45 "HgN/A
6:50 AM39 °FPassing clouds.2 mph87%30.45 "HgN/A
6:20 AM39 °FMostly cloudy.3 mph87%30.45 "HgN/A
5:50 AM39 °FOvercast.3 mph87%30.45 "HgN/A
5:20 AM39 °FPartly cloudy.3 mph87%30.42 "HgN/A
4:50 AM39 °FPartly cloudy.5 mph87%30.42 "HgN/A
4:20 AM39 °FOvercast.5 mph87%30.42 "HgN/A
3:50 AM39 °FPartly cloudy.3 mph87%30.42 "HgN/A
3:20 AM39 °FOvercast.3 mph87%30.42 "HgN/A
2:50 AM39 °FPartly cloudy.3 mph87%30.42 "HgN/A
2:20 AM39 °FPartly cloudy.2 mph87%30.42 "HgN/A
1:50 AM39 °FPartly cloudy.3 mph87%30.42 "HgN/A
1:20 AM39 °FMostly cloudy.3 mph87%30.42 "HgN/A
12:50 AM39 °FMostly cloudy.3 mph87%30.42 "HgN/A
12:20 AM39 °FMostly cloudy.5 mph87%30.42 "HgN/A
Weather by CustomWeather, © 2016

See weather overviewHow to use our weather pages